Probability
0 0 0 0 0 0 0 0 0 3 13 16 16 29 39 61 55 71 90 61 65 77 87 94 100 100 100 100 100 100 100 100 100 100 100 100 100 100 100 100 100 100 100 100 100 100 100 100 100
0 0 0 0 0 0 0 3 3 6 19 26 42 68 71 90 90 84 90 65 81 84 87 87 100 100 100 100 100 100 100 100 100 100 100 100 100 100 100 100 100 100 100 100 100 100 100 100 100
0 0 0 0 0 0 0 3 6 16 19 35 71 84 90 94 90 87 90 87 84 84 84 97 100 100 100 100 100 100 100 100 100 100 100 100 100 100 100 100 100 100 100 100 100 100 100 100 100
0 0 0 0 0 0 0 6 13 16 26 42 61 90 94 100 97 90 94 84 81 81 77 97 100 100 100 100 100 100 100 100 100 100 100 100 100 100 100 100 100 100 100 100 100 100 100 97 97
0 0 0 0 0 0 3 6 6 16 39 42 61 84 94 94 97 94 97 81 81 81 84 94 100 100 100 100 100 100 100 100 100 100 100 100 100 100 100 100 100 100 100 100 100 100 100 97 97
0 0 0 0 0 3 3 3 6 19 35 42 58 81 94 87 94 90 90 90 81 81 81 97 100 100 100 100 100 100 100 100 100 100 100 100 100 100 100 100 100 100 100 100 100 100 100 100 100
0 0 0 0 0 3 3 6 13 32 39 52 61 81 97 87 87 94 87 81 81 84 87 84 90 100 100 100 100 100 100 100 100 100 100 100 100 100 100 100 100 100 100 100 100 97 100 94 90
0 0 0 0 0 3 3 13 23 35 45 65 68 81 97 90 84 87 84 84 84 87 90 90 94 97 97 97 100 100 100 100 100 100 100 100 100 100 100 100 100 100 100 100 97 100 94 94 90
0 0 0 0 0 3 3 10 29 39 58 71 77 84 87 87 87 90 87 81 81 81 87 94 94 97 97 90 97 97 97 97 97 97 97 97 100 100 97 97 97 100 97 97 97 100 97 97 87
0 0 0 0 0 3 10 19 26 45 52 74 84 90 87 90 87 87 87 87 77 77 74 77 77 84 87 90 94 94 94 94 94 97 97 97 94 97 90 97 97 97 97 94 94 90 87 71 71
0 0 0 0 3 6 6 10 19 23 32 65 87 90 84 77 84 87 81 81 81 77 74 74 81 84 84 87 90 94 94 90 84 90 94 97 97 97 90 97 97 97 94 97 94 84 68 52 55
0 0 0 3 3 6 3 6 16 23 48 68 77 87 81 81 81 81 77 74 74 71 68 68 71 81 81 84 84 84 87 87 87 87 84 87 90 87 87 94 90 90 94 90 81 74 58 65 55
0 0 3 3 3 6 6 16 26 42 58 68 84 84 84 84 77 74 74 68 68 61 68 65 58 68 71 81 81 81 84 84 84 87 84 84 81 84 77 84 87 84 74 77 77 65 68 58 55
0 0 3 3 3 6 10 19 26 42 61 68 81 77 71 71 71 68 68 65 65 65 61 58 71 71 74 74 71 71 74 81 77 81 81 84 84 84 81 81 84 74 71 68 68 58 74 71 52
0 0 3 3 6 6 10 16 29 48 55 68 74 74 71 74 71 65 61 58 52 55 58 61 58 65 61 58 61 68 68 65 71 77 81 74 74 77 81 74 81 74 74 71 74 68 68 61 55
0 0 0 3 3 6 3 6 32 52 58 65 61 68 71 65 58 55 58 58 48 58 55 48 45 55 58 55 65 61 65 65 65 68 71 71 71 74 74 74 77 74 71 77 77 77 74 71 61
0 0 0 3 3 3 6 10 32 42 48 58 65 68 68 65 58 55 52 58 52 52 58 61 61 55 55 61 55 48 55 58 65 61 65 74 74 74 74 74 77 71 71 71 68 74 81 74 68
0 0 0 0 3 3 3 19 35 48 45 61 65 68 71 61 55 48 45 42 52 52 55 52 55 58 52 55 48 52 55 48 55 58 58 61 65 65 71 74 77 71 71 71 74 74 74 61 58
0 0 0 0 0 3 3 23 35 42 48 48 65 61 68 55 48 55 48 45 52 58 61 58 52 55 55 52 48 39 42 45 35 45 52 52 55 52 55 52 65 68 65 74 68 68 58 55 48
0 0 0 0 3 3 13 19 29 48 42 45 55 61 61 55 52 45 45 45 48 58 61 58 61 52 48 55 55 45 42 45 39 35 42 48 45 45 45 48 52 58 68 61 58 55 42 35 35
0 0 0 3 6 6 10 16 29 55 48 45 52 65 65 61 55 45 35 45 42 42 45 42 42 39 35 42 42 39 39 35 32 29 29 29 32 42 42 48 45 55 48 55 55 52 42 35 32
0 0 0 6 3 6 6 3 32 42 55 55 65 68 68 58 52 42 42 39 35 29 29 32 29 29 32 29 32 26 32 26 23 23 23 19 19 19 29 42 42 52 48 52 55 39 45 42 35
3 0 6 6 6 3 6 3 13 29 35 61 58 65 68 52 48 39 39 32 19 23 19 19 19 23 29 29 35 35 23 23 23 23 16 16 13 13 13 26 35 35 39 39 42 48 39 35 32
0 3 3 0 0 0 0 0 6 23 29 39 55 71 58 45 35 35 29 23 16 19 19 16 16 13 16 19 26 23 26 26 26 26 19 16 13 10 13 10 16 19 26 26 29 29 29 32 32
0 0 0 0 0 0 0 0 13 32 32 42 52 61 55 48 32 23 23 19 16 16 13 13 10 13 13 10 16 16 13 16 26 29 23 13 6 6 6 6 13 16 19 16 19 19 16 23 26
0 0 0 0 0 0 3 3 26 32 35 42 55 58 45 32 29 23 23 16 16 13 16 13 13 16 13 10 10 10 10 10 10 13 10 13 10 6 6 3 6 6 6 10 10 10 10 13 19
0 0 0 0 0 0 0 10 29 23 32 39 48 45 39 23 29 16 16 13 13 10 6 10 10 3 3 3 3 6 10 6 6 6 6 10 10 3 3 3 3 6 10 10 10 10 10 13 13
0 0 0 0 0 0 0 3 6 32 39 42 42 45 26 23 19 16 16 10 6 3 3 3 3 3 3 3 3 3 3 3 3 3 3 0 6 3 3 3 3 0 6 10 6 3 6 6 6
0 0 0 0 0 0 0 0 3 26 39 39 42 35 16 19 13 10 6 6 0 0 0 3 3 3 3 3 3 3 3 3 3 0 0 0 0 0 0 0 0 3 3 3 6 6 6 3 3
0 0 0 0 0 0 0 6 3 26 42 39 39 32 19 10 10 10 0 0 0 0 0 3 3 3 3 3 3 3 0 0 0 0 0 0 0 0 0 0 0 3 3 3 3 3 3 0 0
Height
5898 5899 5901 5903 5905 5906 5906 5906 5907 5909 5910 5911 5912 5912 5913 5914 5915 5917 5914 5913 5913 5914 5914 5914 5915 5915 5915 5916 5916 5916 5916 5916 5916 5917 5917 5917 5917 5917 5917 5917 5917 5917 5917 5917 5916 5916 5916 5915 5915
5895 5897 5899 5900 5903 5904 5903 5903 5905 5906 5908 5909 5910 5911 5911 5911 5912 5912 5911 5911 5912 5912 5912 5912 5913 5914 5914 5915 5915 5915 5915 5915 5915 5916 5916 5916 5916 5916 5917 5917 5917 5916 5916 5916 5916 5915 5915 5915 5914
5892 5894 5896 5898 5899 5901 5899 5901 5902 5904 5905 5907 5907 5908 5909 5909 5910 5910 5910 5910 5910 5910 5910 5910 5911 5912 5912 5913 5913 5914 5914 5914 5914 5915 5915 5915 5915 5915 5915 5916 5916 5916 5915 5915 5915 5915 5914 5914 5914
5889 5891 5894 5896 5895 5895 5896 5898 5900 5901 5903 5904 5905 5906 5907 5907 5908 5908 5908 5908 5908 5908 5908 5908 5909 5909 5910 5911 5911 5911 5912 5912 5913 5913 5913 5913 5914 5914 5914 5914 5914 5914 5914 5914 5914 5914 5914 5913 5913
5886 5889 5891 5892 5891 5892 5893 5895 5897 5899 5900 5902 5903 5904 5904 5905 5905 5905 5905 5905 5905 5905 5905 5906 5906 5907 5908 5908 5908 5909 5909 5910 5910 5911 5911 5911 5912 5912 5912 5913 5913 5913 5913 5913 5913 5913 5912 5912 5912
5884 5886 5888 5888 5888 5889 5891 5893 5895 5897 5898 5899 5900 5901 5901 5903 5903 5903 5903 5903 5903 5903 5903 5903 5903 5904 5904 5905 5905 5906 5906 5907 5908 5908 5909 5909 5910 5910 5910 5911 5911 5911 5911 5911 5911 5911 5910 5910 5910
5882 5883 5884 5885 5885 5886 5888 5890 5892 5894 5895 5897 5898 5899 5899 5899 5900 5900 5900 5901 5900 5900 5899 5899 5900 5900 5900 5901 5902 5902 5903 5903 5904 5905 5906 5907 5907 5908 5908 5909 5909 5909 5909 5909 5909 5909 5908 5908 5908
5878 5881 5881 5882 5883 5883 5886 5887 5889 5891 5892 5894 5895 5896 5896 5897 5897 5897 5897 5897 5897 5897 5896 5896 5896 5896 5896 5897 5897 5898 5899 5900 5901 5901 5903 5904 5904 5905 5905 5906 5906 5906 5906 5906 5906 5906 5906 5906 5906
5875 5878 5878 5879 5880 5881 5883 5885 5886 5888 5890 5891 5892 5893 5894 5894 5894 5895 5894 5894 5894 5893 5893 5893 5893 5893 5892 5892 5893 5893 5895 5896 5896 5898 5899 5900 5901 5901 5902 5903 5903 5903 5903 5903 5903 5903 5903 5903 5903
5872 5874 5874 5875 5876 5878 5880 5882 5884 5885 5887 5888 5889 5890 5890 5891 5891 5891 5891 5891 5891 5890 5890 5889 5889 5888 5888 5888 5888 5889 5890 5891 5892 5893 5895 5896 5897 5898 5898 5899 5899 5900 5900 5900 5900 5900 5900 5900 5900
5868 5869 5870 5872 5873 5875 5877 5879 5880 5882 5884 5885 5886 5887 5887 5888 5888 5888 5888 5888 5887 5887 5886 5885 5885 5884 5884 5884 5884 5884 5885 5886 5887 5889 5890 5892 5893 5894 5895 5895 5895 5896 5896 5896 5896 5896 5896 5897 5897
5865 5866 5867 5868 5870 5872 5874 5875 5877 5879 5880 5881 5882 5883 5884 5884 5885 5885 5885 5884 5884 5883 5883 5882 5881 5881 5880 5880 5880 5880 5881 5882 5883 5884 5886 5887 5889 5890 5890 5891 5892 5892 5892 5893 5893 5893 5893 5893 5893
5861 5862 5864 5865 5867 5868 5870 5872 5873 5875 5876 5877 5879 5880 5880 5881 5881 5881 5881 5881 5880 5879 5879 5878 5877 5877 5876 5876 5876 5876 5876 5877 5878 5879 5881 5883 5884 5885 5886 5887 5887 5888 5888 5888 5888 5888 5888 5889 5889
5858 5859 5860 5862 5863 5865 5867 5868 5870 5870 5872 5874 5875 5876 5876 5877 5877 5878 5877 5877 5876 5875 5875 5874 5873 5872 5872 5871 5872 5873 5872 5873 5874 5875 5876 5878 5879 5880 5881 5881 5882 5883 5883 5884 5884 5884 5884 5884 5884
5854 5856 5857 5858 5860 5862 5864 5865 5866 5867 5868 5870 5871 5872 5872 5873 5873 5873 5873 5873 5872 5871 5871 5870 5869 5868 5868 5867 5867 5868 5868 5868 5869 5870 5871 5873 5874 5875 5875 5876 5877 5877 5878 5878 5879 5879 5879 5880 5880
5851 5853 5854 5854 5856 5858 5862 5862 5862 5863 5865 5866 5867 5868 5868 5869 5869 5869 5869 5869 5868 5867 5867 5866 5865 5864 5864 5863 5863 5863 5863 5863 5864 5865 5867 5868 5869 5870 5870 5871 5871 5872 5873 5873 5873 5874 5874 5874 5874
5848 5850 5850 5850 5852 5854 5858 5858 5858 5859 5861 5862 5863 5864 5864 5865 5865 5865 5865 5865 5864 5863 5863 5862 5861 5860 5859 5859 5858 5858 5857 5857 5859 5861 5862 5862 5863 5864 5865 5865 5866 5866 5867 5867 5868 5868 5868 5869 5869
5844 5846 5846 5847 5848 5851 5853 5854 5854 5856 5857 5858 5859 5859 5860 5861 5861 5861 5860 5860 5860 5859 5859 5858 5857 5856 5855 5855 5854 5853 5853 5853 5854 5855 5856 5857 5858 5859 5859 5860 5860 5860 5861 5862 5862 5862 5863 5863 5863
5840 5842 5843 5843 5845 5847 5848 5850 5851 5852 5853 5854 5855 5855 5856 5857 5857 5856 5856 5855 5855 5855 5854 5854 5853 5852 5851 5850 5850 5849 5849 5849 5849 5850 5850 5851 5852 5853 5854 5854 5855 5855 5855 5856 5856 5856 5856 5857 5857
5836 5838 5839 5840 5841 5843 5845 5846 5847 5849 5850 5851 5851 5852 5852 5853 5853 5853 5852 5851 5850 5850 5850 5849 5848 5847 5846 5846 5845 5844 5844 5844 5844 5845 5845 5845 5846 5847 5848 5848 5849 5849 5850 5850 5850 5850 5851 5851 5851
5832 5835 5836 5837 5838 5840 5842 5843 5844 5845 5846 5847 5847 5847 5848 5848 5848 5848 5847 5847 5846 5846 5846 5844 5843 5843 5842 5841 5840 5840 5839 5839 5839 5840 5840 5840 5840 5841 5842 5843 5843 5843 5844 5844 5844 5844 5844 5845 5845
5829 5831 5832 5834 5836 5837 5839 5841 5840 5841 5842 5842 5843 5843 5844 5844 5844 5844 5843 5843 5842 5841 5841 5839 5839 5838 5837 5836 5835 5835 5835 5834 5834 5834 5834 5834 5835 5836 5836 5836 5837 5837 5838 5838 5838 5838 5838 5838 5838
5827 5828 5829 5831 5833 5835 5836 5838 5839 5837 5837 5838 5838 5839 5839 5839 5839 5839 5838 5838 5837 5836 5835 5835 5834 5833 5832 5831 5831 5830 5830 5829 5829 5829 5829 5829 5829 5829 5830 5830 5831 5831 5832 5832 5832 5832 5831 5832 5832
5823 5825 5827 5828 5831 5833 5833 5835 5835 5833 5833 5834 5834 5834 5835 5835 5835 5834 5834 5833 5832 5831 5830 5830 5829 5828 5827 5827 5826 5825 5825 5825 5824 5824 5823 5823 5823 5824 5824 5824 5825 5825 5825 5825 5825 5825 5825 5825 5825
5821 5824 5827 5828 5829 5830 5829 5830 5831 5829 5830 5830 5830 5830 5831 5831 5831 5830 5829 5828 5827 5826 5825 5825 5824 5823 5822 5822 5821 5820 5820 5819 5819 5818 5818 5817 5817 5817 5817 5817 5818 5818 5818 5818 5818 5818 5818 5818 5818
5818 5821 5825 5827 5827 5828 5825 5826 5827 5826 5826 5826 5827 5827 5827 5826 5826 5825 5824 5823 5822 5821 5820 5819 5819 5818 5817 5816 5815 5815 5814 5814 5813 5812 5812 5811 5811 5810 5810 5810 5810 5810 5811 5811 5811 5811 5811 5811 5811
5815 5817 5820 5822 5822 5824 5823 5822 5822 5822 5822 5822 5823 5823 5822 5822 5821 5820 5819 5818 5816 5816 5815 5814 5813 5812 5811 5810 5809 5808 5807 5807 5806 5805 5804 5804 5803 5803 5803 5803 5803 5803 5803 5803 5803 5803 5803 5803 5803
5813 5814 5816 5818 5819 5820 5820 5819 5819 5818 5818 5818 5818 5818 5818 5817 5816 5815 5813 5812 5811 5810 5809 5808 5807 5806 5805 5804 5803 5802 5800 5799 5798 5797 5797 5796 5796 5795 5795 5795 5795 5795 5795 5795 5795 5795 5795 5795 5796
5809 5810 5812 5814 5815 5817 5817 5818 5815 5814 5814 5814 5814 5813 5812 5811 5810 5809 5808 5806 5805 5804 5803 5802 5800 5799 5798 5797 5795 5794 5793 5792 5791 5790 5789 5788 5787 5787 5786 5786 5786 5786 5786 5786 5786 5786 5787 5787 5788
5805 5807 5808 5810 5811 5811 5812 5815 5810 5809 5809 5809 5808 5808 5807 5806 5804 5803 5802 5800 5799 5797 5796 5795 5793 5792 5790 5789 5788 5787 5786 5784 5783 5782 5781 5780 5779 5778 5777 5777 5777 5777 5777 5778 5778 5778 5778 5779 5779
Wind_Speed
16 16 16 15 14 15 16 17 15 14 13 11 10 10 9 8 6 5 5 4 4 3 4 4 4 4 5 6 6 7 7 6 5 4 3 2 1 1 1 2 2 3 4 4 4 5 5 5 5
17 17 17 16 15 15 19 19 17 15 13 12 11 11 10 10 9 8 7 7 5 5 5 5 5 6 6 7 8 8 8 7 7 6 5 4 3 2 1 0 1 1 2 3 3 4 4 4 4
17 17 17 18 17 18 21 19 18 15 14 13 13 12 12 11 11 10 9 8 7 7 6 6 7 8 9 9 9 9 10 9 8 8 7 6 5 4 3 3 2 2 2 2 3 4 4 4 3
17 17 18 19 20 22 22 19 18 16 15 14 14 13 12 12 11 10 10 9 9 8 7 7 7 9 10 11 10 10 11 11 10 10 9 8 7 6 5 5 4 4 3 3 4 4 4 4 4
17 17 18 19 22 23 22 20 18 17 16 15 15 14 14 13 13 12 10 10 10 9 9 9 9 10 10 11 11 11 12 12 12 12 11 10 9 8 8 7 6 6 6 6 6 6 6 6 6
16 17 18 20 22 23 23 21 20 18 17 17 16 16 15 14 14 13 11 11 11 11 12 12 12 12 13 13 14 13 13 13 14 14 13 12 11 10 10 9 9 8 8 8 8 8 8 8 7
16 17 18 21 22 24 23 21 20 19 19 18 17 17 16 14 14 13 13 13 13 13 13 13 14 14 15 15 15 16 16 15 16 16 15 14 13 13 12 11 11 10 10 10 10 10 10 9 9
16 17 19 21 23 24 22 21 21 20 20 18 18 17 17 15 15 14 15 14 14 14 14 14 14 15 16 16 17 18 18 18 18 18 17 16 16 15 14 13 13 12 12 12 12 12 11 11 10
17 18 20 23 24 24 23 22 21 21 20 19 19 18 17 17 16 15 15 14 15 14 14 14 15 15 16 17 17 19 19 19 19 19 18 18 18 17 17 16 15 15 14 14 14 13 13 13 12
17 20 22 23 23 24 23 23 22 21 21 20 19 18 17 17 16 15 15 15 15 15 14 14 15 15 17 17 17 19 20 21 20 20 20 20 20 19 18 17 17 16 16 16 15 15 14 14 14
19 21 22 22 23 23 24 23 22 22 22 21 20 19 18 18 17 16 15 15 15 15 14 14 15 16 17 17 19 19 20 21 22 21 21 21 21 20 19 19 18 18 18 17 17 16 16 16 16
20 21 22 22 22 23 23 23 23 23 23 21 20 19 18 18 18 17 16 16 16 15 15 15 15 16 18 18 19 19 20 22 23 23 23 22 22 21 21 20 20 20 19 19 18 18 18 17 17
21 21 21 21 22 22 23 24 24 23 22 21 20 20 19 19 18 17 17 17 16 16 16 16 16 18 19 19 19 19 21 21 22 23 23 23 23 23 22 22 22 21 21 20 20 20 20 18 18
21 21 21 22 22 23 23 23 23 23 22 22 20 20 19 19 18 18 18 17 16 16 17 17 17 16 17 18 18 20 21 21 23 25 25 25 24 24 24 23 23 22 21 22 21 21 22 21 21
20 21 22 22 23 23 23 23 24 23 22 21 21 20 19 18 18 18 18 18 17 17 17 17 17 17 17 17 18 19 21 22 24 25 25 25 25 25 25 25 24 23 23 23 23 23 23 23 22
19 20 22 23 23 23 22 23 24 23 22 21 21 20 20 19 19 18 18 18 18 18 18 17 16 17 17 18 19 21 23 24 25 25 26 26 26 26 26 26 25 25 24 24 24 24 24 25 24
18 19 21 23 22 22 21 23 24 22 22 21 21 20 20 19 19 19 19 18 18 18 18 18 18 18 18 19 20 21 23 24 25 25 26 27 28 28 27 27 26 26 25 25 25 25 25 25 25
17 18 19 21 21 21 21 22 22 21 21 21 21 21 20 19 19 19 19 19 19 19 19 19 19 20 20 20 21 22 22 22 22 24 26 27 28 29 28 28 27 26 26 27 26 26 26 26 25
17 17 18 20 20 20 20 21 21 21 21 21 20 20 20 19 19 19 20 20 20 19 19 20 21 20 21 21 21 21 21 22 22 23 25 25 27 28 28 28 27 27 27 27 27 27 26 26 27
16 16 17 19 19 19 19 19 19 19 19 19 19 19 20 19 19 19 19 19 18 19 19 20 20 20 20 20 20 20 20 21 22 23 23 25 26 27 27 27 26 25 26 26 27 27 26 27 27
14 15 15 17 17 17 17 18 18 18 18 18 18 19 20 19 18 19 19 19 19 19 20 21 20 20 20 20 19 19 19 21 22 22 23 24 25 26 26 27 27 26 26 26 26 27 27 27 27
13 14 15 15 13 15 15 15 18 18 19 18 19 19 19 19 19 19 19 19 20 21 21 21 21 21 20 20 20 20 20 21 22 23 23 23 24 26 26 26 26 26 27 27 27 28 27 27 28
13 13 14 14 13 14 14 15 17 18 18 18 18 19 19 19 19 20 20 20 21 22 22 21 21 21 20 20 20 21 21 21 22 22 22 23 23 24 25 25 26 26 27 28 28 28 27 27 28
13 13 13 13 12 13 14 14 16 18 17 17 18 18 18 19 19 20 20 21 21 21 21 22 22 21 21 21 21 21 21 22 23 23 23 23 24 24 25 25 26 27 27 27 28 28 28 27 27
13 11 11 12 13 14 15 14 15 16 16 17 17 17 18 19 20 20 20 21 21 21 21 21 21 20 20 21 21 22 22 23 24 24 24 24 24 25 25 26 27 27 28 28 28 28 27 28 28
13 13 12 12 13 13 16 16 16 15 16 17 17 18 19 19 20 21 22 22 23 23 22 22 21 22 22 22 22 23 24 25 25 25 26 26 26 27 27 27 28 28 29 28 28 28 28 28 28
14 14 13 13 13 13 15 16 16 16 16 16 17 18 19 20 21 22 22 23 23 24 24 24 24 24 24 24 25 26 27 27 27 27 28 28 28 28 29 29 30 30 30 29 29 29 29 29 29
15 14 14 12 13 13 13 14 15 15 15 15 17 17 19 20 21 22 23 24 24 24 24 25 25 26 26 26 27 27 28 28 28 28 29 29 30 30 30 30 30 31 31 31 31 31 30 30 30
15 15 15 14 14 13 13 14 15 15 15 16 17 18 20 21 22 23 23 24 25 25 25 25 26 26 27 27 27 27 27 28 29 29 29 29 30 30 31 31 31 32 32 32 31 31 31 31 30
15 15 14 14 14 14 14 15 16 15 16 16 17 19 20 21 22 22 24 24 25 26 26 26 26 26 27 27 27 27 28 28 29 29 29 29 30 30 31 31 31 32 32 32 32 31 31 31 30
Wind_Direction
244 243 243 243 243 245 244 249 250 249 250 251 250 249 249 249 249 250 253 250 246 247 243 239 232 231 234 237 238 237 235 232 226 224 227 219 190 128 80 67 55 55 49 43 36 29 30 30 28
243 242 241 241 240 242 246 249 248 251 253 251 249 250 253 255 257 255 256 257 260 262 259 247 242 240 238 239 239 240 239 239 235 233 233 230 224 227 235 267 3 24 23 18 14 11 11 14 14
242 240 239 238 236 233 245 248 249 250 250 250 250 253 258 261 262 262 264 266 268 271 268 259 255 247 242 241 240 240 241 241 239 241 240 237 234 234 237 243 254 279 307 326 339 344 344 348 349
240 239 237 235 236 240 247 248 249 249 248 249 253 256 258 262 265 267 270 271 274 275 272 269 264 251 247 244 242 243 243 241 240 243 243 239 237 239 237 240 246 257 271 286 304 315 323 321 322
238 237 236 236 239 243 245 247 247 247 250 251 252 254 258 263 268 272 272 278 278 277 279 278 270 256 250 250 248 245 243 242 242 243 243 240 238 239 237 240 246 255 264 271 281 291 298 302 301
237 234 234 236 240 243 246 246 245 245 246 250 252 256 261 267 270 272 277 283 283 283 285 278 271 261 255 254 247 244 241 241 242 242 242 242 240 239 239 241 245 251 259 265 271 277 283 286 287
235 233 232 236 241 243 246 246 246 245 246 249 255 260 265 266 271 276 281 284 289 289 288 278 271 265 259 256 250 245 241 239 240 241 241 242 242 242 243 243 246 250 255 259 263 269 275 277 278
236 234 234 237 240 244 246 246 247 246 248 253 257 260 262 265 272 277 282 285 287 288 286 278 271 266 260 254 251 247 242 241 239 239 240 242 243 243 244 247 249 251 254 257 261 265 269 271 272
235 233 234 237 239 245 247 247 248 250 251 252 257 260 262 266 271 277 282 286 289 288 283 276 270 264 257 253 251 247 243 242 239 238 241 243 244 244 245 248 251 252 254 257 261 264 266 267 268
234 232 236 240 242 245 247 248 249 250 252 254 256 260 263 267 273 278 281 285 288 285 279 273 270 263 256 250 247 246 244 242 238 238 242 245 246 246 247 248 252 255 256 257 260 264 265 267 268
237 237 240 241 243 245 247 248 249 250 251 253 256 262 265 269 274 278 282 285 284 279 272 270 266 262 255 250 247 248 249 241 240 242 244 246 248 250 250 250 254 257 258 260 261 264 267 269 269
240 241 242 243 244 245 246 248 249 250 251 255 258 263 266 268 273 276 278 282 281 275 270 266 262 258 255 252 249 246 246 244 242 243 244 247 249 250 251 251 255 258 260 261 263 266 269 270 269
241 243 243 244 244 244 246 248 250 250 252 256 260 263 266 268 271 272 274 277 277 274 270 265 266 261 257 253 248 247 248 246 245 243 244 248 250 252 253 254 258 260 260 261 262 264 266 268 270
243 243 243 243 243 244 245 247 249 250 253 256 259 261 263 265 267 270 272 274 273 270 270 269 268 266 258 253 252 249 251 249 248 245 244 246 250 253 255 256 257 259 260 260 262 264 265 267 269
242 243 244 243 243 242 244 246 248 251 253 256 258 260 261 262 266 270 271 273 273 271 272 271 269 268 264 257 253 252 254 253 250 246 245 248 252 254 255 256 257 259 260 261 262 263 262 264 267
242 243 245 245 243 242 242 245 248 249 252 255 259 261 263 264 267 271 271 273 276 274 274 272 270 269 267 261 256 256 258 253 248 247 248 250 252 253 255 257 258 259 261 262 263 264 263 264 266
242 241 242 246 244 243 241 242 248 248 252 254 259 261 262 264 268 273 274 274 277 277 275 276 272 271 269 264 259 259 258 252 249 250 252 251 252 253 254 256 257 258 259 262 265 266 265 266 268
238 237 240 245 245 243 242 243 248 249 251 253 255 257 259 262 267 272 276 276 277 277 274 274 274 271 267 267 265 261 260 257 255 255 255 255 254 253 254 255 257 259 260 262 264 264 264 265 268
237 235 238 241 244 243 243 245 248 250 252 254 256 257 259 263 267 271 275 275 275 275 274 272 271 271 268 268 268 263 261 258 257 259 258 255 255 256 255 256 258 261 261 263 265 265 264 266 267
236 234 237 243 245 244 244 245 247 250 254 256 255 257 260 264 268 270 274 274 273 273 273 272 270 269 269 270 270 264 258 257 257 259 259 258 259 259 258 259 261 263 263 265 266 265 265 267 268
233 230 235 243 245 245 244 247 248 250 253 254 256 258 260 263 264 268 273 272 270 270 273 272 269 268 269 270 271 267 263 258 257 260 261 261 259 258 259 260 262 265 266 266 266 266 266 267 267
230 231 233 239 239 244 243 246 254 252 254 254 256 258 258 260 263 267 270 269 267 268 271 270 267 266 268 269 269 266 265 265 263 263 263 263 261 260 260 259 262 264 265 267 268 268 266 267 267
224 230 233 236 235 239 243 239 252 253 252 254 256 255 255 258 264 267 268 269 268 269 268 269 267 268 268 267 268 268 267 268 267 268 267 266 265 263 262 262 263 265 267 267 268 268 268 267 268
225 228 231 235 237 242 243 240 250 254 252 252 253 253 253 258 263 268 270 269 269 267 268 267 268 271 272 269 267 267 268 271 271 271 271 269 267 267 265 263 264 265 267 269 269 269 268 268 267
225 222 231 234 237 241 246 241 246 250 249 250 251 253 256 261 264 269 271 269 269 268 268 267 268 272 273 270 268 269 270 273 273 271 272 272 271 270 267 265 265 266 267 268 268 269 268 267 268
227 221 222 231 237 244 251 247 251 254 252 251 251 254 260 263 266 271 273 275 273 271 271 271 270 272 276 275 274 273 273 274 273 272 272 272 271 269 268 266 266 267 267 268 268 268 268 268 268
226 226 228 234 242 245 252 255 257 257 255 253 254 256 260 265 269 273 275 276 275 272 273 273 274 275 275 275 276 276 275 276 275 273 272 271 270 270 269 268 268 267 268 268 268 268 269 269 269
227 231 233 233 241 247 255 258 260 258 255 256 259 260 264 268 272 273 274 275 274 275 273 273 275 275 275 276 278 278 277 276 277 276 275 273 272 270 269 268 268 268 268 270 270 270 269 269 269
234 235 236 236 239 244 253 257 259 258 257 260 263 265 267 270 273 274 276 275 273 274 274 276 276 275 276 277 278 278 277 277 277 277 276 275 274 273 271 270 269 268 269 270 270 270 270 269 268
230 234 238 241 246 249 256 260 261 262 261 264 266 268 269 271 273 275 275 276 276 276 275 276 277 277 277 277 278 278 279 279 278 277 276 276 276 274 272 272 270 269 269 270 271 270 270 269 268